Accueil
METAR-TAF:

METAR-TAF

Aéroports :

Plate-forme pétrolière

Hoorn-a, Pays-Bas

latitude: 52-55-05N, longitude: 4-09-01E, altitude: 41 m

Observation

Le bulletin a été fait il y a 16 minutes, à 13:55 UTC
Vent 5 kt de sud-ouest
Température 18°C
Humidité 83%
Pression 1020 hPa
Visibilité 10 km ou plus
Nuages fragmentés à une hauteur de 1100 ft

METAR: EHQE 201355Z AUTO 23005KT 9999 BKN011 18/15 Q1020 W///H///

Heure: 16:11 (14:11 UTC)


TAF: absent

Observations et prévisions météorologiques de plus de 4000 aéroports (messages METAR et TAF).

Les stations disponibles sont représentées par des disques jaunes et rouges sur la carte.

Passer la souris dessus pour voir le nom de la station.

Cliquer dessus pour voir les observations et prévisions météorologiques.

Pour changer de carte: cliquez sur les boutons verts avec une croix noire pour zoomer, sur le bouton vert avec un tiret pour effectuer un zoom arrière, ou sur les flèches vertes pour les cartes adjacentes.


METAR-TAF: